Theta_e
348 341 341 345 345 346 347 347 346 342 345 345 344 345 343 338 343 346 346 342 342 340 335 343 346 351 347 347 346 348 347 347 346 344 340 336 335 338 339 343 342 342 342
350 349 349 348 347 347 347 347 347 346 347 346 345 346 346 343 342 344 346 344 343 344 344 339 342 349 351 348 346 347 346 347 347 345 341 343 336 335 337 339 341 342 342
349 348 351 351 351 348 347 347 345 348 346 348 347 349 348 346 347 345 344 343 345 345 344 342 339 343 346 350 349 346 346 346 347 345 344 342 343 340 334 334 338 339 341
348 348 350 351 349 347 349 349 348 348 348 348 349 348 347 345 346 347 345 345 342 344 346 344 342 341 342 346 342 345 345 347 345 345 345 344 342 342 341 340 338 339 339
349 348 349 349 348 348 347 347 347 347 346 345 349 348 348 347 346 346 348 348 346 344 346 346 344 341 341 347 347 344 343 344 346 344 344 345 343 342 342 342 342 341 341
348 346 348 346 348 348 349 349 348 348 349 349 348 350 350 350 351 350 348 348 347 346 345 347 348 346 343 343 345 345 344 343 345 343 343 344 345 342 342 342 342 341 340
348 345 347 347 347 347 350 349 349 350 352 352 350 349 349 350 350 351 352 350 350 350 348 348 349 347 347 345 344 344 343 343 343 343 344 344 344 345 343 340 341 341 340
346 347 347 348 347 348 345 349 350 351 351 351 350 350 351 349 350 349 351 351 351 351 350 349 348 349 348 347 348 347 345 343 343 343 343 344 344 346 344 343 340 338 338
347 347 347 347 346 347 349 350 350 350 349 350 346 346 353 353 348 348 349 350 352 351 350 349 349 349 350 348 346 347 345 345 344 343 343 342 343 344 346 346 343 337 337
348 347 346 343 341 345 346 347 348 349 349 348 348 347 346 348 351 351 348 349 352 353 351 349 348 349 350 350 349 346 346 346 345 345 345 344 344 343 343 345 347 344 340
349 345 343 340 343 344 343 346 343 344 346 346 346 347 348 348 349 349 351 350 348 347 351 351 347 348 350 349 349 350 347 345 345 345 346 345 345 344 344 343 344 346 347
344 336 336 335 334 338 344 335 328 338 341 344 344 346 347 347 348 349 350 349 348 349 351 347 346 347 348 350 350 348 347 346 346 346 347 347 347 345 345 344 344 344 346
340 335 334 334 340 341 332 331 328 330 331 338 340 340 343 346 347 347 348 350 351 349 349 346 346 346 345 344 344 347 347 347 348 347 348 347 346 347 346 346 346 347 346
342 338 336 336 337 340 332 333 335 333 331 335 337 338 340 340 343 346 347 347 347 349 348 345 344 346 344 344 343 342 344 347 348 347 347 346 347 347 347 348 347 346 346
344 340 338 337 339 338 333 335 336 335 334 334 334 335 337 337 338 341 343 345 345 348 347 347 347 345 343 342 343 342 341 344 346 346 345 347 347 346 345 345 346 347 347
346 342 341 341 343 342 335 334 337 335 336 334 332 334 334 334 335 337 337 340 344 342 344 342 342 344 345 344 342 343 344 343 344 344 344 345 344 345 345 346 346 345 345
344 345 343 345 344 343 339 338 337 336 335 332 332 332 331 330 330 330 331 333 335 337 342 339 340 344 345 345 345 345 341 342 343 343 343 343 344 343 346 346 345 343 346
344 343 343 343 341 339 338 337 336 335 331 329 329 331 330 328 328 327 327 328 329 330 333 335 336 337 342 343 344 345 344 344 345 345 342 341 342 344 345 344 345 345 344
345 342 340 338 336 335 334 332 329 327 325 323 323 326 327 326 324 324 324 324 324 324 327 328 331 334 337 338 339 341 342 339 337 335 337 340 341 340 340 341 342 341 344
339 338 334 332 329 327 324 323 322 319 319 317 316 319 321 319 318 319 320 320 320 321 322 324 326 328 330 332 332 336 337 336 335 335 335 339 340 340 342 341 341 340 341
336 332 329 324 321 321 319 316 313 314 314 315 315 315 316 314 314 315 316 318 318 319 320 321 322 322 324 325 326 327 329 330 330 331 337 338 340 336 337 342 342 341 342
330 326 322 321 319 316 309 309 311 313 314 314 313 313 312 312 314 313 312 313 314 316 317 317 318 318 320 321 324 324 324 325 329 327 331 328 330 333 335 340 343 342 337
324 322 319 315 315 313 309 309 310 313 312 312 312 312 311 311 312 312 311 311 312 311 311 314 317 318 319 321 319 320 323 326 327 326 326 326 326 328 331 334 337 339 336
321 318 313 311 314 310 308 308 308 311 310 310 311 311 310 310 308 310 310 311 310 310 309 310 311 312 313 314 315 316 321 323 323 324 328 331 329 329 330 331 333 337 335
319 313 309 311 312 307 306 306 310 310 311 311 310 310 310 309 306 306 310 310 310 309 309 308 308 308 308 310 311 314 314 315 319 323 326 328 331 333 334 336 336 339 338
316 312 311 309 308 307 308 308 310 311 312 311 311 310 308 307 306 306 309 310 309 309 309 309 309 309 309 310 309 309 310 313 314 318 324 324 326 327 331 330 335 340 342
Wind_Speed
11 12 15 13 15 15 15 19 18 16 15 14 14 14 19 18 20 17 17 21 20 20 18 20 19 18 17 16 15 16 15 16 16 15 14 11 11 12 13 12 11 11 10
13 13 13 14 16 16 16 17 17 18 16 16 18 16 17 20 23 22 17 18 21 20 21 21 23 21 20 19 19 18 18 18 18 17 18 16 15 14 13 12 13 13 13
13 14 13 12 13 16 15 16 20 18 14 15 21 17 15 19 19 23 24 22 19 22 24 22 25 23 23 21 21 22 22 21 21 20 20 20 20 19 19 16 13 13 14
13 12 11 10 12 13 13 13 12 11 14 13 15 19 19 22 25 24 27 28 28 24 22 26 27 26 26 25 24 25 26 26 23 23 23 23 23 23 22 21 20 18 16
13 8 7 8 10 9 6 6 6 7 9 13 13 14 17 22 26 24 26 25 28 29 24 23 27 29 27 27 27 25 25 28 28 25 25 25 25 24 25 24 23 22 20
9 6 5 5 4 1 3 3 5 8 9 8 10 13 15 17 18 21 29 26 29 29 29 23 21 27 31 30 29 28 28 28 29 30 29 29 29 28 27 27 26 25 24
5 3 3 3 2 3 2 5 7 4 5 5 8 10 13 13 15 18 20 23 27 23 22 24 23 23 24 30 33 33 30 32 32 30 30 31 31 29 29 30 29 28 27
5 2 3 1 2 3 5 5 4 5 4 4 5 10 4 6 6 11 16 18 21 22 22 22 24 22 24 24 25 30 35 33 32 32 30 30 31 33 32 32 31 32 31
5 1 1 0 3 4 4 5 5 4 6 5 7 5 3 2 10 9 12 12 13 16 20 19 21 22 23 25 26 27 29 33 35 33 32 31 32 31 33 34 34 34 33
5 2 0 2 3 3 4 6 6 5 6 7 7 4 10 10 2 3 7 4 8 11 12 14 18 21 22 22 25 26 27 29 31 33 33 33 32 31 32 34 36 35 35
5 3 2 2 3 3 5 5 7 6 5 6 8 7 9 11 8 4 3 5 7 7 6 7 7 12 16 20 19 20 25 30 30 29 32 33 32 32 34 34 35 35 36
6 3 2 2 3 3 4 6 7 7 6 5 7 9 9 6 9 5 2 4 6 9 9 14 15 10 10 12 16 21 23 25 27 28 28 33 34 34 33 34 36 37 37
6 4 2 4 4 4 4 6 8 9 8 6 7 8 8 10 10 9 8 7 3 2 3 8 13 18 17 18 21 20 19 21 22 24 24 28 30 30 31 34 37 36 35
8 5 3 3 4 2 4 6 7 8 10 8 8 8 7 8 9 10 8 6 5 3 2 6 6 8 11 15 19 20 18 19 22 20 21 20 26 27 30 28 31 34 36
7 5 2 2 3 1 1 3 5 8 9 10 10 10 8 9 8 9 9 7 5 3 5 4 5 5 11 11 12 14 18 18 18 21 23 23 24 24 26 28 30 35 36
7 5 3 1 2 2 2 3 4 6 7 9 10 10 10 11 10 10 10 8 6 3 4 10 11 13 13 12 10 11 16 19 20 20 20 22 27 26 23 22 25 29 32
6 3 2 0 1 2 2 3 5 7 8 8 8 9 10 11 11 11 11 10 9 9 7 10 12 13 13 13 13 12 12 12 14 15 17 19 22 24 25 26 27 28 33
6 4 3 2 1 2 3 4 6 7 7 8 9 10 12 12 12 12 11 12 11 10 10 12 13 13 14 14 14 14 12 10 9 12 14 15 18 20 23 26 27 31 35
6 5 5 3 4 5 4 5 5 6 7 8 9 10 10 12 13 14 14 14 14 13 12 13 15 13 14 14 16 14 13 13 12 13 14 16 17 18 21 24 27 27 31
8 7 6 5 5 5 5 6 5 5 6 7 8 8 9 12 13 14 13 14 14 15 14 14 15 15 15 15 16 16 17 16 18 18 17 15 16 16 18 20 25 28 31
9 9 7 5 6 7 6 6 7 7 8 9 10 10 10 12 13 13 13 15 15 13 14 15 14 14 15 17 18 19 21 21 22 20 14 14 12 16 18 19 20 19 22
11 10 8 6 6 6 5 6 7 8 9 10 11 11 10 13 14 15 15 13 11 13 12 11 11 13 14 17 17 18 21 21 12 18 17 25 22 22 20 19 20 24 24
12 10 9 7 8 9 10 11 13 11 12 13 14 14 14 15 16 16 17 15 14 13 12 13 15 17 19 19 21 18 18 20 21 21 23 28 23 27 23 22 23 24 22
12 10 8 9 11 11 14 17 18 14 14 15 13 15 16 16 18 17 17 17 18 18 18 15 15 17 17 19 18 20 23 21 21 18 17 22 22 25 24 25 25 27 25
13 11 11 13 14 16 17 16 15 13 13 13 12 13 13 14 21 20 17 18 19 19 19 19 19 17 15 14 14 16 17 19 15 18 18 21 21 22 23 24 22 22 22
13 10 14 16 16 15 14 14 12 9 9 8 8 8 15 16 18 19 12 15 18 18 18 19 19 19 20 18 16 15 16 16 16 10 13 19 24 25 16 21 17 14 10
Wind_Direction
267 268 273 272 283 286 293 283 279 280 273 266 261 262 261 257 266 265 258 254 249 250 243 238 233 229 228 226 226 222 223 221 217 211 205 200 194 194 193 192 194 193 196
273 277 282 285 284 284 280 292 297 286 268 268 268 269 261 257 256 259 258 254 247 246 248 239 231 230 228 225 224 226 226 228 221 222 219 217 211 204 203 201 202 202 204
274 280 284 287 285 288 275 272 283 284 267 267 268 267 261 267 257 259 256 254 252 255 247 245 236 233 230 229 232 229 231 227 229 226 226 225 222 219 222 226 224 220 217
290 287 290 295 297 286 278 276 275 281 271 267 271 271 264 259 260 259 256 250 250 252 251 241 235 235 238 237 240 235 232 238 232 230 228 228 227 224 225 226 232 234 228
292 275 285 309 309 290 268 246 269 265 273 278 281 283 267 253 255 252 252 244 247 243 243 243 236 233 236 234 239 245 243 240 240 232 232 232 231 231 230 228 227 231 231
275 271 306 332 339 325 183 237 269 281 283 285 291 278 271 262 259 254 251 250 247 246 243 240 237 234 235 235 239 241 240 240 242 240 235 233 235 234 234 233 232 232 234
240 257 304 352 19 23 263 276 287 284 293 291 302 301 282 270 261 260 255 251 242 238 236 235 236 235 236 241 240 242 240 236 240 244 241 236 238 236 235 236 236 234 237
211 237 301 248 325 328 313 302 293 307 291 298 302 301 296 308 286 300 261 248 243 237 234 230 230 236 236 236 239 240 238 239 239 241 241 242 240 239 239 237 238 238 237
203 205 23 100 348 -0 346 331 316 314 316 310 318 281 309 279 314 294 267 242 243 233 228 233 238 238 239 241 243 243 242 244 242 240 243 244 243 242 242 242 240 240 240
185 169 144 11 3 17 16 346 324 311 314 308 318 293 294 291 314 302 297 272 243 234 232 239 241 238 240 241 247 248 242 244 245 246 245 246 247 244 245 244 244 244 243
157 136 85 15 4 17 12 27 14 9 347 333 326 311 309 317 319 292 295 319 298 254 245 239 274 248 240 237 243 250 254 250 247 248 247 245 247 246 246 245 246 246 245
131 119 97 38 10 33 55 31 23 18 10 -0 345 337 330 317 324 337 300 278 264 290 273 263 268 259 249 248 256 259 264 258 252 251 245 243 241 242 244 245 245 247 246
139 131 78 55 56 82 64 51 42 33 23 17 5 349 339 336 329 328 331 335 322 295 302 261 256 255 256 262 265 268 268 261 244 247 249 240 242 244 244 247 245 241 244
148 139 92 63 41 102 75 48 42 32 25 19 11 3 350 353 347 337 327 340 330 327 318 279 299 266 270 274 273 268 270 266 248 253 250 245 245 247 243 242 243 243 246
158 162 139 92 31 169 83 32 32 26 19 12 5 2 -0 353 355 357 347 350 338 330 325 337 328 331 309 303 293 271 261 269 259 259 258 250 249 256 257 246 247 243 241
174 182 184 203 13 7 297 342 3 11 16 8 2 7 11 5 1 359 356 357 350 316 296 321 320 319 324 323 323 296 269 270 265 266 261 259 256 259 259 247 246 246 243
178 180 213 260 348 348 313 345 -0 5 9 15 19 17 16 11 5 2 -0 359 355 347 307 308 312 318 322 324 327 326 321 298 284 274 270 266 264 260 256 251 259 255 250
182 191 187 187 29 50 40 24 10 8 17 17 15 12 10 4 2 359 353 352 350 350 335 314 319 318 318 320 321 321 319 320 309 303 290 279 272 264 257 258 258 255 251
164 155 146 113 76 68 64 39 34 32 25 18 11 11 10 6 356 351 346 343 338 333 324 317 315 315 316 322 327 323 321 320 319 312 307 298 288 276 268 264 259 259 256
150 133 111 91 72 59 59 65 35 22 21 23 19 20 14 7 359 351 348 348 343 333 327 319 313 314 319 322 322 319 315 314 315 317 309 303 285 281 283 275 266 257 253
135 125 113 93 74 56 40 34 30 30 37 39 35 34 21 12 6 1 355 350 351 350 344 337 328 327 329 328 322 319 308 311 308 307 297 300 300 297 291 286 277 264 260
140 130 118 105 87 64 29 48 73 68 57 52 45 36 28 15 14 7 4 4 359 348 348 342 327 326 328 327 327 320 308 306 304 306 309 299 297 290 286 280 273 273 276
137 123 111 89 76 72 72 74 78 73 67 61 54 47 41 31 25 20 14 13 12 10 359 340 330 328 324 324 326 314 307 302 298 302 299 295 295 286 284 279 280 278 276
129 111 97 94 96 90 95 96 90 84 73 63 52 43 36 27 24 20 18 20 19 14 3 351 333 321 318 320 321 318 318 299 295 297 297 291 299 292 290 282 279 277 275
133 126 119 118 118 112 107 99 92 84 76 66 56 48 42 33 33 28 16 13 8 2 358 354 355 347 338 335 334 328 337 339 323 314 299 285 298 310 307 295 284 280 279
137 129 124 125 126 117 111 100 93 88 77 68 54 42 35 35 31 28 18 6 1 355 354 356 358 358 355 352 350 346 333 324 319 313 322 334 309 311 307 298 286 294 274